Omaha, IA

11:09 PM CDT on August 18, 2019 (GMT -0500)
Eppley Airfield

Weather History for KOMA - July, 2019

Change the Weather History Date:

Sunday, July 21, 2019

  Actual Average Record
Temperature  
Mean Temperature 72 °F 77 °F  
Max Temperature 75 °F 87 °F 110 °F (1974)
Min Temperature 69 °F 67 °F 53 °F (1970)
Degree Days  
Heating Degree Days 0 0  
Month to date heating degree days 0 0  
Since 1 June heating degree days 0 17  
Since 1 July heating degree days 0 0  
Cooling Degree Days 7 12  
Month to date cooling degree days 334 248  
Year to date cooling degree days 711 560  
Since 1 June cooling degree days 615 478  
Growing Degree Days 22 (Base 50)    
Moisture  
Dew Point 67 °F    
Average Humidity 85    
Maximum Humidity 97    
Minimum Humidity 73    
Precipitation  
Precipitation 0.43 in 0.11 in 2.40 in (1977)
Month to date precipitation 2.30 2.59  
Year to date precipitation 19.65 18.05  
Snow  
Snow 0.00 in 0.00 in - ()
Month to date snowfall 0.0 0.0  
Since 1 June snowfall 0.0 0.0  
Since 1 July snowfall 0.0 0.0  
Snow Depth 0.00 in    
Sea Level Pressure  
Sea Level Pressure 30.00 in    
Wind  
Wind Speed 10 mph (NNE)    
Max Wind Speed 25 mph    
Max Gust Speed 33 mph    
Visibility 9 miles    
Events Rain , Thunderstorm    
T = Trace of Precipitation, MM = Missing Value Source: NWS Daily Summary

Daily Weather History Graph

Daily Weather History Graph

Search for Another Location

Airport or City:

Astronomy

Jul. 21, 2019 Rise Set
Actual Time 6:08 AM CDT 8:51 PM CDT
Civil Twilight 5:36 AM CDT 9:23 PM CDT
Nautical Twilight 4:55 AM CDT 10:03 PM CDT
Astronomical Twilight 4:09 AM CDT 10:49 PM CDT
Moon 11:43 PM CDT (7/21) 10:32 AM CDT (7/21)
Length of Visible Light 15h 47m
Length of Day
14h 42m
Waning Gibbous, 80% of the Moon is Illuminated
Jul 21
Waning Gibbous
Jul 24
Last Quarter
Jul 31
New
Aug 7
First Quarter
Aug 15
Full

Hourly Weather History & Observations

Time (CDT) Temp. Dew Point Humidity Pressure Visibility Wind Dir Wind Speed Gust Speed Precip Events Conditions
12:14 AM 75.0 °F 68.0 °F 79% 29.93 in 10.0 mi NNE 12.7 mph - N/A   Overcast
12:52 AM 73.9 °F 68.0 °F 82% 29.91 in 10.0 mi ENE 8.1 mph - N/A   Overcast
1:52 AM 73.0 °F 66.0 °F 79% 29.94 in 10.0 mi ENE 10.4 mph - N/A   Overcast
2:52 AM 72.0 °F 66.0 °F 81% 29.94 in 10.0 mi NNE 10.4 mph - N/A   Overcast
2:59 AM 72.0 °F 66.0 °F 81% 29.96 in 10.0 mi NE 8.1 mph - N/A   Overcast
3:11 AM 72.0 °F 66.0 °F 81% 29.95 in 10.0 mi NE 12.7 mph - N/A Thunderstorm Thunderstorm
3:52 AM 71.1 °F 64.9 °F 81% 29.91 in 10.0 mi NNE 5.8 mph - N/A Thunderstorm Thunderstorm
4:30 AM 71.1 °F 64.9 °F 81% 29.93 in 10.0 mi ENE 6.9 mph - N/A Thunderstorm Thunderstorm
4:52 AM 70.0 °F 64.9 °F 84% 29.91 in 10.0 mi ENE 6.9 mph - N/A Thunderstorm Thunderstorm
5:35 AM 71.1 °F 64.9 °F 81% 29.96 in 10.0 mi NNE 3.5 mph - 0.00 in Rain , Thunderstorm Light Thunderstorms and Rain
5:52 AM 70.0 °F 66.0 °F 87% 29.95 in 10.0 mi Variable 3.5 mph - 0.00 in Rain , Thunderstorm Light Thunderstorms and Rain
6:52 AM 69.1 °F 68.0 °F 96% 29.94 in 4.0 mi SE 6.9 mph - 0.04 in Rain , Thunderstorm Light Thunderstorms and Rain
6:59 AM 69.1 °F 68.0 °F 96% 29.97 in 5.0 mi ENE 3.5 mph - 0.01 in Rain , Thunderstorm Light Thunderstorms and Rain
7:21 AM 69.1 °F 68.0 °F 96% 29.98 in 10.0 mi ESE 3.5 mph - 0.02 in Rain Light Rain
7:48 AM 69.8 °F 68.0 °F 94% 30.00 in 10.0 mi Calm Calm - 0.02 in Thunderstorm Overcast
7:49 AM 70.0 °F 68.0 °F 93% 29.98 in 10.0 mi Calm Calm - 0.02 in Thunderstorm Thunderstorm
7:56 AM 70.0 °F 68.0 °F 93% 30.01 in 10.0 mi Calm Calm - N/A Thunderstorm Thunderstorm
8:13 AM 70.0 °F 68.0 °F 93% 30.02 in 10.0 mi North 6.9 mph - 0.00 in Rain Light Rain
8:52 AM 69.1 °F 66.9 °F 93% 30.02 in 4.0 mi North 5.8 mph - 0.03 in Rain Rain
8:59 AM 69.1 °F 68.0 °F 96% 30.04 in 4.0 mi North 5.8 mph - 0.01 in Rain , Thunderstorm Light Thunderstorms and Rain
9:19 AM 69.1 °F 68.0 °F 96% 30.05 in 4.0 mi Calm Calm - 0.06 in Rain Light Rain
9:52 AM 69.1 °F 68.0 °F 96% 30.04 in 3.0 mi NNW 5.8 mph - 0.12 in Rain Rain
10:18 AM 69.1 °F 66.9 °F 93% 30.07 in 4.0 mi NNW 6.9 mph - 0.11 in Rain , Thunderstorm Thunderstorms and Rain
10:36 AM 69.1 °F 68.0 °F 96% 30.05 in 5.0 mi NNW 9.2 mph - 0.15 in Rain Light Rain
10:52 AM 69.1 °F 66.9 °F 93% 30.02 in 5.0 mi North 12.7 mph - 0.18 in Rain Rain
11:29 AM 69.1 °F 66.9 °F 93% 30.02 in 10.0 mi North 13.8 mph - 0.04 in Rain Light Rain
11:52 AM 70.0 °F 68.0 °F 93% 29.97 in 10.0 mi NNE 15.0 mph - 0.04 in Rain Light Rain
12:52 PM 72.0 °F 69.1 °F 91% 29.94 in 10.0 mi North 20.7 mph 26.5 mph 0.00 in   Overcast
1:52 PM 73.9 °F 69.1 °F 85% 29.97 in 10.0 mi North 20.7 mph 28.8 mph N/A   Overcast
2:17 PM 73.9 °F 69.1 °F 85% 30.03 in 10.0 mi NNW 8.1 mph - N/A   Overcast
2:52 PM 73.9 °F 68.0 °F 82% 30.02 in 10.0 mi North 10.4 mph - N/A   Overcast
3:45 PM 73.9 °F 69.1 °F 85% 30.06 in 10.0 mi North 8.1 mph - N/A   Overcast
3:52 PM 73.9 °F 69.1 °F 85% 30.04 in 10.0 mi NNW 8.1 mph - N/A   Overcast
4:52 PM 73.9 °F 66.9 °F 79% 30.05 in 10.0 mi NE 8.1 mph - N/A   Overcast
5:52 PM 73.9 °F 68.0 °F 82% 30.07 in 10.0 mi NNE 12.7 mph - N/A   Overcast
6:52 PM 73.9 °F 66.0 °F 76% 30.06 in 10.0 mi NNE 11.5 mph - N/A   Overcast
7:52 PM 73.9 °F 64.9 °F 73% 30.06 in 10.0 mi NNE 12.7 mph - N/A   Mostly Cloudy
8:52 PM 73.0 °F 66.0 °F 79% 30.08 in 10.0 mi North 10.4 mph - N/A   Mostly Cloudy
9:52 PM 71.1 °F 66.0 °F 84% 30.09 in 10.0 mi North 6.9 mph - N/A   Mostly Cloudy
10:52 PM 71.1 °F 66.9 °F 87% 30.10 in 10.0 mi North 8.1 mph - N/A   Mostly Cloudy
11:52 PM 69.1 °F 66.0 °F 90% 30.11 in 10.0 mi North 5.8 mph - N/A   Scattered Clouds